GW5292 Weather Reports


time (UTC)temp
C
wind
direction
speed
KPH
gust
KPH
rain 1hr
cm
rain 24hr
cm
rain mn
cm
humidity
%
barometer
mb
20260904021531 25 208 0.0 0.0 0.00 2.57 2.57 86 1012.9
20260904020036 25 208 0.0 0.0 0.00 2.57 2.57 84 1013.0
20260904014523 25 208 0.0 3.2 0.00 2.57 2.57 83 1013.4
20260904013027 26 208 0.0 0.0 0.00 2.57 2.57 81 1013.5
20260904011557 26 208 1.6 4.8 0.00 2.57 2.57 81 1013.3
20260904010036 25 213 1.6 3.2 0.00 2.57 2.57 82 1013.5
20260904004532 26 208 0.0 3.2 0.00 2.57 2.57 82 1013.5
20260904003027 26 208 1.6 3.2 0.00 2.57 2.57 81 1013.7
20260904001506 26 213 0.0 3.2 0.00 2.57 2.57 80 1013.6
20260904000013 26 200 1.6 3.2 0.00 2.57 2.57 80 1013.0
20260903234534 26 200 0.0 0.0 0.00 2.57 2.57 81 1012.9
20260903233026 26 200 0.0 3.2 0.00 2.57 2.57 79 1013.2
20260903231527 26 200 1.6 3.2 0.00 2.57 2.57 80 1013.0
20260903230012 27 199 0.0 0.0 0.00 2.57 2.57 79 1013.1
20260903224511 27 199 0.0 1.6 0.00 2.57 2.57 76 1013.2
20260903223017 28 199 0.0 3.2 0.00 2.57 2.57 73 1012.8
20260903221524 28 198 1.6 4.8 0.00 2.57 2.57 71 1012.5
20260903220031 28 213 3.2 6.4 0.00 2.57 2.57 71 1012.8
20260903214509 29 194 1.6 4.8 0.00 2.57 2.57 71 1012.5
20260903213019 29 208 0.0 3.2 0.00 2.57 2.57 70 1012.4
20260903211521 30 208 1.6 4.8 0.00 2.57 2.57 67 1012.1
20260903210027 30 9 0.0 3.2 0.00 2.57 2.57 67 1012.2
20260903204530 30 153 0.0 3.2 0.00 2.57 2.57 68 1012.4
20260903203026 30 189 0.0 4.8 0.00 2.59 2.57 69 1012.5
20260903201531 29 212 3.2 4.8 0.00 2.59 2.57 68 1012.6
20260903200025 28 165 1.6 4.8 0.00 2.59 2.57 71 1012.8
20260903194530 28 194 1.6 4.8 0.00 2.59 2.57 71 1013.0
20260903193017 28 180 1.6 8.0 0.00 2.59 2.57 70 1013.1
20260903191515 28 234 4.8 8.0 0.00 2.59 2.57 68 1013.3
20260903190026 28 195 3.2 9.7 0.00 2.59 2.57 69 1013.5
20260903184531 28 222 6.4 8.0 0.00 2.59 2.57 70 1013.6
20260903183039 28 188 3.2 9.7 0.00 2.59 2.57 70 1013.8
20260903181515 28 190 4.8 11.3 0.00 2.59 2.57 70 1014.1
20260903180006 28 185 3.2 11.3 0.00 2.59 2.57 73 1014.1
20260903174505 27 191 6.4 11.3 0.00 2.59 2.57 72 1014.4
20260903173006 27 198 3.2 9.7 0.00 2.59 2.57 75 1014.3
20260903171509 27 130 3.2 8.0 0.00 2.62 2.57 77 1014.5
20260903170018 27 202 4.8 9.7 0.00 2.64 2.57 76 1014.8
20260903164505 26 181 8.0 11.3 0.00 2.72 2.57 78 1014.9
20260903163005 26 183 6.4 9.7 0.00 2.74 2.57 80 1015.2
20260903161507 26 158 6.4 11.3 0.00 2.74 2.57 80 1015.4
20260903160014 26 199 3.2 11.3 0.00 2.74 2.57 83 1015.5
20260903154523 25 196 4.8 8.0 0.00 2.74 2.57 88 1015.7
20260903153003 23 194 6.4 8.0 0.00 2.74 2.57 88 1016.0
20260903151506 23 182 3.2 4.8 0.00 2.74 2.57 90 1016.5
20260903150023 23 185 1.6 6.4 0.00 2.74 2.57 91 1016.4
20260903144538 23 202 1.6 6.4 0.00 2.74 2.57 1016.2
20260903143035 22 194 3.2 6.4 0.00 2.74 2.57 93 1016.6
20260903141504 22 191 1.6 4.8 0.00 2.74 2.57 94 1016.6
20260903140015 22 187 3.2 4.8 0.00 2.74 2.57 94 1016.3
20260903134514 22 223 3.2 4.8 0.00 2.74 2.57 94 1016.0
20260903133026 22 203 3.2 6.4 0.00 2.74 2.57 95 1015.7
20260903131528 21 182 3.2 6.4 0.00 2.74 2.57 97 1015.9
20260903130008 21 175 3.2 4.8 0.00 2.74 2.57 97 1015.7
20260903124513 20 215 1.6 3.2 0.00 2.74 2.57 97 1016.0
20260903123017 20 205 3.2 4.8 0.00 2.74 2.57 97 1016.2
20260903121532 20 190 1.6 4.8 0.00 2.74 2.57 97 1016.1
20260903120045 20 205 1.6 3.2 0.03 2.74 2.57 97 1015.7
20260903114514 20 239 0.0 3.2 0.03 2.74 2.57 97 1015.7
20260903113022 20 270 0.0 3.2 0.03 2.74 2.57 97 1015.4
20260903111524 20 270 0.0 4.8 0.05 2.74 2.57 97 1014.7
20260903110032 20 194 3.2 8.0 0.08 2.72 2.54 97 1015.0
20260903104552 20 200 3.2 8.0 0.10 2.72 2.54 97 1016.2
20260903103016 20 196 3.2 4.8 0.10 2.72 2.54 97 1016.5
20260903101529 20 209 3.2 4.8 0.08 2.67 2.51 97 1017.2
20260903100036 20 192 0.0 3.2 0.03 2.64 2.46 97 1017.4
20260903094547 20 192 0.0 4.8 0.03 2.62 2.44 97 1016.7
20260903093036 20 200 0.0 3.2 0.13 2.62 2.44 97 1016.6
20260903091523 20 196 1.6 3.2 0.20 2.62 2.44 97 1016.8
20260903090003 20 33 1.6 4.8 0.28 2.62 2.44 97 1015.8
20260903084507 20 348 1.6 3.2 0.36 2.59 2.41 97 1016.5
20260903083011 20 236 0.0 3.2 0.33 2.49 2.31 97 1016.4
20260903081515 19 352 0.0 1.6 0.41 2.41 2.24 97 1016.6
20260903080025 20 352 0.0 3.2 0.41 2.34 2.16 97 1017.2
20260903074505 19 179 0.0 3.2 0.30 2.24 2.06 97 1017.3
20260903073008 19 179 0.0 4.8 0.23 2.16 1.98 96 1017.6
20260903071514 19 167 0.0 3.2 0.08 2.01 1.83 96 1018.7
20260903070022 20 165 1.6 3.2 0.00 1.93 1.75 96 1017.9
20260903064527 20 165 1.6 3.2 0.00 1.93 1.75 96 1017.1
20260903063010 20 165 0.0 3.2 0.03 1.93 1.75 96 1017.2
20260903061509 20 53 0.0 6.4 0.18 1.93 1.75 96 1017.6
20260903060019 20 9 1.6 4.8 0.81 1.93 1.75 96 1017.6
20260903054523 20 352 3.2 6.4 1.45 1.93 1.75 96 1017.4
20260903053028 20 306 0.0 3.2 1.73 1.91 1.73 96 1016.8
20260903051507 20 299 1.6 6.4 1.57 1.75 1.57 96 1017.0
20260903050014 20 27 1.6 8.0 0.94 1.12 0.94 96 1018.7
20260903044521 20 42 1.6 9.7 0.30 0.48 0.30 95 1019.7
20260903043107 21 331 4.8 9.7 0.00 0.18 0.00 95 1019.3
20260903041530 21 17 4.8 12.9 0.00 0.18 0.00 95 1018.2
20260903040017 21 43 1.6 6.4 0.00 0.18 0.00 95 1018.1
20260903034533 21 67 0.0 6.4 0.00 0.18 0.18 95 1018.2
20260903033024 21 330 0.0 3.2 0.00 0.18 0.18 95 1018.2
20260903031531 21 11 1.6 3.2 0.00 0.18 0.18 95 1018.4
20260903030034 21 351 1.6 4.8 0.00 0.18 0.18 95 1018.2
20260903024523 21 26 1.6 3.2 0.00 0.18 0.18 95 1017.9
20260903023022 21 352 1.6 3.2 0.00 0.18 0.18 95 1018.1